Starlink 3675

operational
NORAD ID: 51963 Int'l Des: 2022-025 Owner: SPXS Country: US Constellation: starlink
LEOCIRCULARSTARLINK_TYPE

Über Starlink 3675

Beschreibung wird geladen...

Live-Position

3D-Globus wird geladen...

Nächste Überflüge

Höhenverlauf

Altitude vs Time

uPlot chart will show altitude changes over time

Zweizeiliger Elementsatz

1 51963U 22025H 25259.21762794 .00001011 00000-0 86752-4 0 9991
2 51963 53.0553 84.8039 0001020 115.7516 244.3578 15.06404244194757
Epoch: 16. Sept. 2025 • Age: 10 hours

Aktueller Status

Höhe 547.8 km
Geschwindigkeit 7.59 km/s
Subsatellitenpunkt 5.03°N, 131.09°W
Startdatum 9. März 2022
Alter 3.5 years
Typ internet

Technische Details

Klassifizierung Payload
Masse 297.00 kg
Trockenmasse 275.00 kg
Gesamtmasse 297.00 kg
Länge 0.20 m
Durchmesser 2.80 m
Spannweite 9.00 m
Form Box + pan
Hersteller SPXS
Bus-Typ Starlink
Phasenstatus In Orbit
Besitzer/Staat SPXS/US

Große Konstellationen

Loading constellations...